STARLINK-11660, 63761

Orbit data source: Space-Track

STARLINK-11660, 63761 is a payload satellite owned by SpaceX/Seattle (US) in LEO that was launched on Tue, 29 Apr 2025 UTC via an FALCON 9 launch vehicle from the Air Force Eastern Test Range (AFETR). Payload-class satellites include a variety of spacecraft equipped with specific instruments for various scientific and technological missions. These include communications satellites like Starlink; space stations such as the ISS; scientific satellites like the Hubble; Earth observation satellites from companies like Planet Labs, Umbra, and HawkEye 360; GPS; miniature CubeSats for education and research; and military/defense satellites.

Loading next visibility...
Identifier
63761, 2025-089L
Orbit
LEO
Country
Flag of USUS
Related business
Manufacturer
SpaceX/Seattle
Mission
Operational Commercial Communications
Bus & Motor
STARLINK V2MD, Unknown motor
Mass
960 kg wet, ~910 kg dry
Launch date (UTC)
2025-04-29 (1 year ago)
Launch vehicle
FALCON 9
Launch site
Air Force Eastern Test Range (AFETR)
Object type
Payload
Rocket body
Debris
Shape & HBR
Box + 2 Pan, 18.1 m
Radar Cross Section
36.964 m², Large (>1 m²)

Expand to show TLE details & history
Last TLE update: 20 hours ago

TLE from 20 hours ago
0 STARLINK-11660
1 63761U 25089L   26171.03210008  .00137232  00000-0  10551-2 0  9990
2 63761  43.0012  35.1471 0001784 261.5003  98.5663 15.70845891 66189
Epoch: 2026-06-20T00:46Z
TLE epoch observation values (Epoch: 2026-06-20T00:46:13.446Z)
Latitude
-0°
Longitude
115.33852°
Altitude
356.429 km
Speed
7.697 km/s
True Right ascension
02h 20m 35s
True Declination
0° 00' 00"
Sunlit
Object was in daylight at epoch
Visualization orbit readout
Latitude
Unknown
Longitude
Unknown
Altitude
Unknown
Speed
Unknown
Apparent Right ascension
Unknown
Apparent Declination
Unknown
Sunlit
N/A
Visualization observer readout
Local Sidereal Time
07:18:23
Azimuth
Unknown
Elevation
Unknown
Doppler factor
Unknown
Orbital elements
Apogee altitude
359.661 km
Perigee altitude
357.258 km
Semi-major axis
6,736.597 km
Eccentricity
0.00018
Inclination
43.0012°
RAAN
35.1471°
Arg. of periapsis
261.5003°
True anomaly
98.58651°
Mean anomaly
98.5663°
Eccentric anomaly
98.57641°
Mean motion
3.92539 °/min
Orbital period
91.71 mins
BSTAR
0.0010551
Loading maneuver chart data...
Computing Atmospheric mass density...
Loading historical data...
Loading historical data...
Loading historical data...
Loading historical data...
Loading historical data...
Loading historical data...
Loading historical data...

Documentation

Showing up to 5 results
|